FW7196 Weather Reports


Display with metric or nautical units.
time (UTC)temp
F
wind
direction
speed
MPH
gust
MPH
rain 1hr
in
rain 24hr
in
rain mn
in
humidity
%
barometer
mb
20260903083041 59 0 0.0 3.0 0.00 0.04 0.04 95 1015.7
20260903081543 59 0 0.0 1.0 0.00 0.04 0.04 95 1015.7
20260903080044 59 0 0.0 2.0 0.00 0.04 0.04 95 1015.7
20260903074541 59 0 0.0 1.0 0.00 0.04 0.04 94 1015.8
20260903073046 59 0 0.0 2.0 0.00 0.04 0.04 94 1015.9
20260903071544 59 0 0.0 5.0 0.00 0.04 0.04 94 1016.2
20260903070045 59 0 0.0 2.0 0.01 0.04 0.04 94 1016.0
20260903064540 59 0 0.0 1.0 0.03 0.04 0.04 94 1016.1
20260903063041 59 0 0.0 1.0 0.04 0.04 0.04 93 1016.0
20260903061558 60 0 0.0 2.0 0.04 0.04 0.04 92 1016.3
20260903060045 61 207 0.0 6.0 0.03 0.03 0.03 90 1016.4
20260903054542 62 0 0.0 3.0 0.01 0.02 0.01 87 1016.6
20260903053055 62 0 0.0 2.0 0.00 0.01 0.00 86 1016.8
20260903051548 62 0 0.0 4.0 0.00 0.01 0.00 86 1016.9
20260903050042 62 0 0.0 1.0 0.00 0.01 0.00 86 1017.0
20260903044540 62 0 0.0 3.0 0.00 0.01 0.00 85 1017.2
20260903043043 62 52 0.0 3.0 0.00 0.01 0.00 86 1017.3
20260903041542 62 280 1.0 3.0 0.00 0.01 0.00 85 1017.2
20260903040040 62 57 0.0 4.0 0.00 0.01 0.00 85 1017.1
20260903034543 62 0 0.0 2.0 0.00 0.01 0.01 84 1017.6
20260903033049 62 0 0.0 4.0 0.00 0.01 0.01 83 1017.4
20260903031549 62 96 0.0 3.0 0.00 0.01 0.01 83 1018.0
20260903030106 62 0 0.0 1.0 0.00 0.01 0.01 84 1018.3
20260903024545 63 0 0.0 2.0 0.00 0.01 0.01 83 1018.5
20260903023043 63 353 0.0 3.0 0.00 0.01 0.01 83 1018.2
20260903021542 63 0 0.0 3.0 0.00 0.01 0.01 84 1018.3
20260903020050 63 83 1.0 8.0 0.00 0.01 0.01 83 1018.7
20260903014544 63 0 0.0 2.0 0.00 0.01 0.01 84 1018.6
20260903013515 63 148 0.0 0.0 0.00 0.01 0.01 85 1018.9
20260903013045 63 0 1.0 5.0 0.00 0.01 0.01 85 1019.1
20260903013001 64 151 0.0 4.0 0.00 0.01 0.01 85 1019.1
20260903012453 64 68 0.0 4.0 0.00 0.01 0.01 84 1018.9
20260903011552 63 0 0.0 4.0 0.00 0.01 0.01 84 1018.9
20260903011317 64 60 0.0 6.0 0.00 0.01 0.01 84 1018.9
20260903010812 64 46 0.0 6.0 0.00 0.01 0.01 84 1018.7
20260903010253 64 74 0.0 6.0 0.00 0.01 0.01 85 1018.8
20260903010050 63 120 0.0 7.0 0.00 0.01 0.01 85 1018.7
20260903005748 64 90 0.0 0.0 0.00 0.01 0.01 86 1018.8
20260903005244 64 22 0.0 0.0 0.00 0.00 0.01 86 1018.7
20260903004544 63 0 0.0 4.0 0.00 0.01 0.01 86 1018.5
20260903003043 63 0 0.0 6.0 0.00 0.01 0.01 87 1018.4
20260903001542 63 75 1.0 6.0 0.00 0.01 0.01 87 1018.5
20260903000046 63 243 0.0 4.0 0.00 0.01 0.01 88 1018.0
20260902234543 63 0 0.0 4.0 0.00 0.01 0.01 88 1018.1
20260902233043 64 24 0.0 3.0 0.00 0.01 0.01 88 1018.2
20260902231600 64 41 0.0 7.0 0.00 0.01 0.01 87 1018.8
20260902230048 64 0 0.0 2.0 0.00 0.01 0.01 87 1019.6
20260902224556 64 0 0.0 1.0 0.00 0.01 0.01 87 1020.0
20260902223050 64 0 0.0 2.0 0.00 0.01 0.01 87 1020.1
20260902221600 64 14 0.0 2.0 0.00 0.01 0.01 86 1020.2
20260902220058 64 0 0.0 4.0 0.00 0.01 0.01 86 1020.2
20260902214543 65 0 0.0 2.0 0.00 0.01 0.01 86 1020.0
20260902213041 65 257 0.0 2.0 0.00 0.01 0.01 86 1020.2
20260902211544 65 270 0.0 2.0 0.00 0.01 0.01 85 1019.9
20260902210046 65 0 0.0 3.0 0.00 0.01 0.01 85 1020.3
20260902204549 65 22 0.0 2.0 0.00 0.01 0.01 84 1020.5
20260902203048 66 179 0.0 3.0 0.00 0.01 0.01 84 1020.4
20260902201550 66 0 0.0 3.0 0.00 0.01 0.01 83 1020.4
20260902200045 67 0 0.0 6.0 0.00 0.01 0.01 82 1020.5
20260902194542 67 92 1.0 6.0 0.00 0.01 0.01 82 1020.5
20260902193054 67 9 0.0 7.0 0.00 0.01 0.01 82 1020.8
20260902191542 67 0 1.0 7.0 0.00 0.01 0.01 83 1020.9
20260902190329 67 51 0.0 0.0 0.00 0.01 0.01 82 1020.9
20260902190043 66 359 0.0 7.0 0.00 0.01 0.01 82 1021.0
20260902185151 65 194 0.0 2.0 0.00 0.01 0.01 86 1021.1
20260902184648 65 191 0.0 0.0 0.00 0.01 0.01 86 1021.3
20260902184606 64 0 0.0 2.0 0.00 0.01 0.01 86 1021.4
20260902184133 65 180 0.0 0.0 0.00 0.01 0.01 86 1021.6
20260902183618 65 124 0.0 0.0 0.00 0.01 0.01 85 1021.6
20260902183103 65 124 0.0 3.0 0.00 0.01 0.01 85 1021.8
20260902183047 65 0 1.0 4.0 0.00 0.01 0.01 85 1021.8
20260902182610 65 159 0.0 0.0 0.00 0.01 0.01 85 1021.8
20260902182118 65 159 0.0 0.0 0.00 0.01 0.01 84 1021.7
20260902181605 65 161 0.0 0.0 0.00 0.01 0.01 83 1021.5
20260902181545 65 0 0.0 4.0 0.00 0.01 0.01 83 1021.6
20260902181052 66 26 0.0 1.0 0.00 0.01 0.01 84 1021.5
20260902180544 66 188 0.0 0.0 0.00 0.01 0.01 84 1021.4
20260902180044 65 0 0.0 3.0 0.00 0.01 0.01 83 1021.3
20260902180038 66 292 0.0 1.0 0.00 0.01 0.01 83 1021.3
20260902174541 65 50 0.0 3.0 0.00 0.01 0.01 83 1021.4
20260902173044 65 17 0.0 2.0 0.00 0.01 0.01 83 1021.3
20260902171552 65 0 0.0 1.0 0.00 0.01 0.01 84 1021.5
20260902170041 65 0 0.0 4.0 0.00 0.01 0.01 83 1021.8
20260902164543 66 0 0.0 3.0 0.00 0.01 0.01 82 1021.8
20260902163049 66 0 0.0 5.0 0.00 0.01 0.01 81 1021.8
20260902161542 66 0 0.0 5.0 0.00 0.01 0.01 82 1021.6
20260902160544 66 39 0.0 1.0 0.00 0.01 0.01 82 1021.8
20260902160046 65 0 0.0 4.0 0.00 0.01 0.01 82 1021.9
20260902160029 66 6 0.0 3.0 0.00 0.01 0.01 82 1021.9
20260902155534 66 173 0.0 0.0 0.00 0.01 0.01 84 1021.9
20260902154545 65 0 0.0 2.0 0.00 0.01 0.01 84 1022.2
20260902153051 65 0 0.0 2.0 0.00 0.01 0.01 83 1022.6
20260902151542 65 0 0.0 4.0 0.00 0.01 0.01 83 1022.3
20260902150043 65 0 0.0 2.0 0.00 0.01 0.01 85 1022.6
20260902145009 65 15 0.0 0.0 0.00 0.01 0.01 83 1022.6
20260902144542 64 0 1.0 3.0 0.00 0.01 0.01 85 1022.5
20260902144513 65 316 0.0 2.0 0.00 0.01 0.01 84 1022.5
20260902144012 65 340 0.0 0.0 0.00 0.01 0.01 84 1022.3
20260902143509 64 343 0.0 0.0 0.00 0.01 0.01 85 1022.5
20260902143041 64 0 0.0 4.0 0.00 0.01 0.01 86 1022.5
20260902143015 64 152 0.0 0.0 0.00 0.01 0.01 86 1022.5
20260902142500 64 262 0.0 3.0 0.00 0.01 0.01 86 1022.3
20260902141956 64 272 0.0 1.0 0.00 0.01 0.01 87 1022.3
20260902141539 63 0 0.0 3.0 0.00 0.01 0.01 87 1022.3
20260902141445 63 125 0.0 2.0 0.00 0.01 0.01 87 1022.3
20260902140935 63 279 0.0 0.0 0.00 0.01 0.01 88 1022.2
20260902140416 63 199 0.0 1.0 0.00 0.01 0.01 88 1022.3
20260902140041 62 317 0.0 2.0 0.00 0.01 0.01 89 1022.3
20260902135858 62 334 0.0 0.0 0.00 0.01 0.01 90 1022.2
20260902135349 62 304 0.0 0.0 0.00 0.01 0.01 90 1022.1
20260902134848 62 38 0.0 0.0 0.00 0.01 0.01 90 1022.2
20260902134550 62 0 0.0 3.0 0.00 0.03 0.01 91 1022.1
20260902134346 62 238 0.0 2.0 0.00 0.01 0.01 90 1022.1
20260902133229 62 254 0.0 1.0 0.00 0.01 0.01 92 1021.8
20260902133047 61 0 0.0 3.0 0.00 0.03 0.01 92 1021.8
20260902132722 62 195 0.0 2.0 0.00 0.01 0.01 92 1021.8
20260902132223 62 156 0.0 1.0 0.00 0.01 0.01 94 1021.8
20260902131545 61 0 0.0 1.0 0.00 0.03 0.01 95 1021.7
20260902131053 61 209 0.0 0.0 0.00 0.01 0.01 95 1021.6
20260902130043 60 0 0.0 2.0 0.00 0.03 0.01 95 1021.7
20260902125926 61 228 0.0 0.0 0.00 0.03 0.01 96 1021.7
20260902125408 61 228 0.0 1.0 0.00 0.03 0.01 96 1021.6
20260902124544 60 0 0.0 2.0 0.00 0.16 0.01 96 1021.7
20260902124235 60 184 0.0 0.0 0.00 0.03 0.01 96 1021.7
20260902123738 60 196 0.0 0.0 0.00 0.18 0.01 96 1021.8
20260902123243 60 196 0.0 0.0 0.00 0.18 0.01 96 1021.8
20260902123051 60 196 0.0 3.0 0.00 0.16 0.01 96 1021.9
20260902121544 59 0 0.0 1.0 0.00 0.16 0.01 97 1022.0
20260902121502 60 261 0.0 0.0 0.00 0.18 0.01 97 1021.9
20260902120043 59 0 0.0 2.0 0.00 0.16 0.01 97 1021.9
20260902114546 59 0 0.0 5.0 0.00 0.27 0.01 97 1021.9
20260902113041 59 0 0.0 1.0 0.00 0.27 0.01 97 1022.0
20260902111540 58 0 0.0 0.0 0.00 0.27 0.01 97 1022.1
20260902110046 58 0 0.0 1.0 0.00 0.27 0.01 97 1022.1
20260902104542 58 0 0.0 0.0 0.00 0.31 0.01 97 1021.8
20260902103040 58 0 0.0 0.0 0.00 0.31 0.01 97 1021.8
20260902101547 58 0 0.0 0.0 0.00 0.31 0.01 97 1021.5
20260902100041 58 0 0.0 0.0 0.00 0.31 0.01 97 1021.4
20260902094542 59 0 0.0 1.0 0.00 0.31 0.01 97 1021.5
20260902093040 59 0 0.0 0.0 0.00 0.31 0.01 97 1021.5
20260902091544 59 0 0.0 0.0 0.00 0.31 0.01 97 1021.4
20260902090048 59 30 0.0 0.0 0.00 0.30 0.01 96 1021.1
20260902090042 59 0 0.0 0.0 0.00 0.31 0.01 96 1021.1
20260902084545 59 0 0.0 0.0 0.00 0.31 0.01 97 1021.3